Lid_Strength_Index
-2 -2 -2 -2 -2 -2 -2 -2 -2 -2 -2 -2 -1 -1 -1 -1 -0 -0 -1 -0 -2 -2 -2 -2 -2 -2 -2 -2 -2 -2 -2 -1 -2
-2 -1 -2 -1 -2 -2 -2 -2 -2 -2 -2 -2 -1 -1 -1 0 -0 -0 -0 -0 -2 -2 -2 -2 -2 -2 -2 -2 -2 -2 -2 -2 -2
-2 -2 -1 -2 -2 -2 -2 -2 -2 -2 -2 -2 -1 -1 0 0 0 0 -0 -1 -2 -2 -2 -2 -2 -2 -2 -2 -2 -2 -2 -2 -2
-2 -2 -2 -2 -2 -2 -2 -2 -2 -2 -2 -2 -1 -1 -0 -0 -1 -0 -0 -1 -2 -2 -2 -2 -2 -2 -2 -2 -2 -2 -2 -2 -2
-1 -1 -2 -2 -2 -2 -2 -2 -2 -2 -2 -1 -0 0 0 0 -1 -1 -0 -1 -2 -2 -2 -1 -2 -2 -1 -2 -2 -2 -2 -2 -2
1 -1 -2 -2 -2 -1 -1 -1 -1 -1 -1 -0 0 1 2 1 1 -0 -1 -1 -2 -2 -2 -2 -2 -2 -2 -2 -2 -2 -2 -2 -2
1 1 -1 -1 -1 -1 -0 0 1 1 2 2 2 3 3 2 1 -0 -1 -1 -2 -2 -2 -2 -2 -2 -2 -2 -2 -2 -2 -2 -2
3 2 2 1 1 2 2 4 3 3 3 3 3 3 4 4 2 0 -1 -2 -2 -2 -2 -2 -2 -2 -2 -2 -2 -2 -2 -2 -1
4 3 4 3 3 2 2 3 4 4 4 3 3 4 4 4 3 2 -0 -2 -2 -2 -2 -2 -2 -2 -2 -2 -2 -2 -2 -2 -2
5 4 4 4 3 3 3 2 3 4 4 4 4 4 4 3 4 3 1 -1 -2 -2 -2 -2 -2 -2 -2 -2 -2 -2 -2 -2 -2
6 5 5 5 4 4 3 3 3 4 3 4 4 4 4 4 3 3 3 0 -2 -2 -2 -2 -2 -2 -1 -1 -2 -2 -2 -2 -2
8 7 7 7 6 5 3 3 4 4 4 3 3 3 3 3 3 3 3 2 -1 -2 -2 -2 -2 -2 -2 -2 -1 -1 -1 -1 -1
9 9 9 8 7 7 5 5 5 6 5 5 5 4 3 3 4 3 3 2 0 -0 -1 -1 -1 -1 -2 -2 -2 -1 -1 -0 -0
11 11 10 9 9 8 7 7 6 7 7 4 5 4 4 4 3 4 3 3 3 4 3 3 2 2 0 -1 -1 -1 0 0 -0
12 12 11 10 10 10 9 8 8 8 8 4 4 4 4 5 6 6 5 4 4 6 7 8 7 5 2 1 0 0 0 -0 -0
13 13 12 12 12 12 11 9 9 9 9 6 4 5 5 6 7 6 6 5 6 8 9 10 10 11 7 4 3 2 0 -0 -1
13 13 14 14 13 13 13 12 10 10 10 9 6 6 6 7 8 8 7 7 7 8 9 10 12 12 11 8 5 4 2 1 -0
14 14 14 14 14 14 14 14 12 12 11 11 9 7 8 8 8 9 9 9 8 9 10 11 11 12 12 10 9 6 5 3 1
16 15 15 14 14 16 15 15 15 13 14 12 10 12 12 8 10 9 10 10 9 11 12 13 13 13 12 12 9 8 7 5 3
17 16 16 15 15 15 16 16 16 16 16 16 14 13 14 13 11 11 13 12 12 13 14 15 15 15 14 13 12 9 8 6 5